カタログに戻る

STARONE D2

運用中通信GEO
NORAD 49055·PAYLOAD·🇧🇷 Brazil

打ち上げ Jul 30, 2021 から Guiana Space Centre

Loading…

TLE

最新Source: Space-Track

元期: Sep 14, 2026, 13:28 UTC

1 49055U 21069A   26257.56123428 -.00000273  00000-0  00000-0 0  9997
2 49055   0.0147 147.4033 0002730  25.2239 312.9778  1.00269669 18852

AllMySatでSTARONE D2をリアルタイム追跡

Download on the App Store